User: anonymous   Login
Location: Ku?niki
(51.4449°N, 17.8974°E)
Time: 22:37:43
(UTC+00:00)
Language:

CREW DRAGON DEMO-1 DEB - Orbit

View from above orbital plane
View from above orbital plane
View from above satellite
View from above satellite

Ground track
Ground track

The orbit data is extracted from the following two-line orbital elements,

1 44064U 19011B   20328.13148963  .00048017  00000-0  38748-3 0  9993
2 44064  51.6320 225.9258 0000864 269.6120  90.4779 15.70373114 97794
Epoch (UTC): 23 November 2020 03:09:20
Eccentricity: 0.0000864
inclination: 51.6320°
perigee height: 357 km
apogee height: 358 km
right ascension of ascending node: 225.9258°
argument of perigee: 269.6120°
revolutions per day: 15.70373114
mean anomaly at epoch: 90.4779°
orbit number at epoch: 9779

The dashed part of the orbit path shows where the satellite is in the earth's shadow,  

DLR